User: anonymous   Login
Location: Unspecified
(0.0000°N, 0.0000°E)
Time: 17:10:09
(UTC+02:00)
Language:

YAOGAN 1 - Orbit

View from above orbital plane
View from above orbital plane
View from above satellite
View from above satellite

Ground track
Ground track

The orbit data is extracted from the following two-line orbital elements,

1 29092U 06015A   15108.09724066  .00000885  00000-0  11745-3 0  9995
2 29092 097.9957 107.9433 0001461 091.7960 310.0942 14.82325477485156
Epoch (UTC): 18 April 2015 02:20:01
Eccentricity: 0.0001461
inclination: 97.9957°
perigee height: 621 km
apogee height: 623 km
right ascension of ascending node: 107.9433°
argument of perigee: 91.7960°
revolutions per day: 14.82325477
mean anomaly at epoch: 310.0942°
orbit number at epoch: 48515

The dashed part of the orbit path shows where the satellite is in the earth's shadow,  

DLR